Regional Weather Roundup
Issued by NWS

Home | Current Version | Previous Version | Text Only | Print | Product List | Glossary On
Versions: 1 2 3 4 5 6 7 8 9 10 11 12 13 14 15 16 17 18 19 20 21 22 23 24 25 26 27 28 29 30 31 32 33 34 35 36 37 38 39 40 41 42 43 44 45 46 47 48 49 50
153
ASUS43 KFSD 140910
RWRSD

WEATHER ROUNDUP FOR SOUTH DAKOTA
NATIONAL WEATHER SERVICE SIOUX FALLS SD
300 AM CST SUN FEB 14 2016

NOTE: "FAIR" INDICATES FEW OR NO CLOUDS BELOW 12,000 FEET WITH NO
SIGNIFICANT WEATHER AND/OR OBSTRUCTIONS TO VISIBILITY.


SDZ001>005-009-010-012>017-141000-
NORTHWEST AND NORTH CENTRAL SOUTH DAKOTA

CITY           SKY/WX    TMP DP  RH WIND       PRES   REMARKS
BUFFALO          N/A     33  28  81 W18       29.76F WCI  22
FAITH            N/A     35  29  78 NW24G36   29.79S WCI  23
MOBRIDGE       CLOUDY    20  17  88 SE10      29.77F FOG     WCI   9
$$

SDZ012>016-024>037-041>051-057-063-072>074-141000-
SOUTHWEST AND SOUTH CENTRAL SOUTH DAKOTA

CITY           SKY/WX    TMP DP  RH WIND       PRES   REMARKS
RAPID CTY ARPT CLEAR     37  26  64 NW17      29.86F
PIERRE         CLOUDY    24  23  96 SE6       29.80S FOG     WCI  17
CUSTER         CLEAR     31  20  63 NW12G31   29.87S WCI  22
ELLSWORTH AFB  CLEAR     39  26  61 NW20      29.85S
PHILIP         CLEAR     36  32  85 W15       29.83S
PINE RIDGE     CLEAR     33  27  78 W12       29.94S WCI  24
SPEARFISH      FAIR      36  27  69 W15G24    29.89S
WINNER         CLOUDY    34  31  88 NW7       29.80S WCI  28
$$

SDZ004>011-016>023-039-040-141000-
NORTHEAST SOUTH DAKOTA

CITY           SKY/WX    TMP DP  RH WIND       PRES   REMARKS
ABERDEEN       FOG       15  11  83 MISG      29.88F VSB 1/2
WATERTOWN      SNOW      12   7  80 S17       29.90F VSB 1/2 WCI  -5
BROOKINGS      LGT SNOW  11   7  84 S21G26    29.92F FOG     WCI  -8
SISSETON         N/A     11   8  88 S17       29.95F WCI  -6
$$

SDZ017-020-022-023-036>040-048>070-141000-
SOUTHEAST SOUTH DAKOTA

CITY           SKY/WX    TMP DP  RH WIND       PRES   REMARKS
SIOUX FALLS    CLOUDY    14   8  77 SE15      29.95F WCI  -1
HURON          CLOUDY    14  11  87 SE14      29.89F WCI  -1
CHAMBERLAIN    FLURRIES  20  17  89 SE8       29.81F WCI  10
MITCHELL       LGT SNOW  16  12  84 SE18      29.90F FOG     WCI   0
YANKTON        CLOUDY    16  10  79 SE16      29.93F WCI   0
$$

ABBREVIATIONS USED IN REMARKS
   TC - TEMPERATURE IN CELSIUS
  WCI - WIND CHILL INDEX
   HX - HEAT INDEX
  VSB - VISIBILITY





USA.gov is the U.S. government's official web portal to all federal, state and local government web resources and services.